Showing default

HAWK-3B, 48931

Orbit data source: Space-Track

HAWK-3B, 48931 is a payload satellite owned by HawkEye 360 (US) in SSO that was launched on Wed, 30 Jun 2021 UTC via an FALCON 9 launch vehicle from the Air Force Eastern Test Range (AFETR). Payload-class satellites include a variety of spacecraft equipped with specific instruments for various scientific and technological missions. These include communications satellites like Starlink; space stations such as the ISS; scientific satellites like the Hubble; Earth observation satellites from companies like Planet Labs, Umbra, and HawkEye 360; GPS; miniature CubeSats for education and research; and military/defense satellites.

Loading next visibility...
Identifier
48931, 2021-059BE
Orbit
SSO
Country
Flag of USUS
Related business
Manufacturer
UTIAS-SFL
Mission
Operational Commercial Sigint
Bus & Motor
DEFIANT, Unknown motor
Mass
31 kg wet, 30 kg dry
Launch date (UTC)
2021-06-30 (4 years ago)
Launch vehicle
FALCON 9
Launch site
Air Force Eastern Test Range (AFETR)
Object type
Payload
Rocket body
Debris
Shape & HBR
Box + 2 Pan, 0.5 m
Radar Cross Section
0.348 m², Medium (>0.1 m² and < 1m²)

Expand to show TLE details & history
Last TLE update: 23 hours ago

TLE from 23 hours ago
0 HAWK-3B
1 48931U 21059BE  25261.04141264  .00019086  00000-0  35456-3 0  9990
2 48931  97.6708  71.4294 0006947 238.1194 121.9380 15.48944665235450
Epoch: 2025-09-18T00:59Z
TLE epoch observation values (Epoch: 2025-09-18T00:59:38.052Z)
Latitude
-0.00005°
Longitude
59.31215°
Altitude
425.435 km
Speed
7.655 km/s
True Right ascension
04h 45m 43s
True Declination
0° 00' 00"
Sunlit
Object was in daylight at epoch
Visualization orbit readout
Latitude
Unknown
Longitude
Unknown
Altitude
Unknown
Speed
Unknown
Apparent Right ascension
Unknown
Apparent Declination
Unknown
Sunlit
N/A
Visualization observer readout
Local Sidereal Time
17:16:55
Azimuth
Unknown
Elevation
Unknown
Doppler factor
Unknown
Orbital elements
Apogee altitude
421.471 km
Perigee altitude
412.031 km
Semi-major axis
6,794.888 km
Eccentricity
0.00069
Inclination
97.6708°
RAAN
71.4294°
Arg. of periapsis
238.1194°
True anomaly
122.00552°
Mean anomaly
121.938°
Eccentric anomaly
121.97177°
Mean motion
3.87498 °/min
Orbital period
92.9 mins
BSTAR
0.00035456
Loading maneuver chart data...
Computing Atmospheric mass density...

Documentation

Showing up to 5 results
|